EW0608 Weather Reports


time (UTC)temp
C
wind
direction
speed
KPH
gust
KPH
rain 1hr
cm
rain 24hr
cm
rain mn
cm
humidity
%
barometer
mb
20260505153017 26 98 4.8 19.3 0.30 1.22 0.48 36 1009.6
20260505151513 25 65 4.8 17.7 0.30 1.22 0.48 38 1009.6
20260505140357 23 235 6.4 16.1 0.13 0.91 0.13 43 1009.7
20260505124543 18 157 4.8 9.7 0.00 0.79 0.00 64 1010.0
20260505123039 16 94 0.0 4.8 0.00 0.79 0.00 76 1010.2
20260505121539 15 174 1.6 6.4 0.00 0.79 0.00 76 1010.4
20260505120057 13 355 1.6 4.8 0.00 0.79 0.00 83 1010.4
20260505114529 11 69 0.0 3.2 0.00 0.79 0.00 93 1010.7
20260505113028 10 65 0.0 1.6 0.00 0.79 0.00 94 1010.6
20260505111527 9 65 0.0 0.0 0.00 0.79 0.00 95 1010.4
20260505101522 8 65 0.0 0.0 0.00 0.79 0.00 95 1009.7
20260505100022 8 65 0.0 0.0 0.00 0.79 0.00 95 1009.6
20260505094516 8 65 0.0 0.0 0.00 0.79 0.00 94 1009.6
20260505093014 8 65 0.0 3.2 0.00 0.79 0.00 94 1009.6
20260505091523 8 65 0.0 0.0 0.00 0.79 0.00 94 1009.4
20260505090026 8 65 0.0 0.0 0.00 0.79 0.00 94 1009.3
20260505084510 8 65 0.0 3.2 0.00 0.79 0.00 93 1009.3
20260505083009 8 65 0.0 0.0 0.00 0.79 0.00 93 1009.4
20260505081512 8 65 0.0 0.0 0.00 0.79 0.00 93 1009.3
20260505080007 8 65 0.0 0.0 5.71 0.00 0.00 94 1009.3
20260505074506 8 65 0.0 0.0 0.00 0.79 0.00 94 1009.2
20260505073004 8 65 0.0 0.0 0.00 0.79 0.00 94 1009.0
20260505071511 8 65 0.0 0.0 0.00 0.79 0.00 93 1008.8
20260505070002 8 65 0.0 1.6 0.00 0.79 0.00 93 1008.9
20260505064559 8 65 0.0 0.0 0.00 0.79 0.00 92 1009.1
20260505063058 8 65 0.0 3.2 0.00 0.79 0.00 92 1009.1
20260505061558 9 65 0.0 0.0 0.00 0.79 0.00 91 1009.1
20260505060054 9 65 0.0 0.0 0.00 0.79 0.00 91 1009.1
20260505054616 10 65 0.0 0.0 0.00 0.79 0.00 90 1009.1
20260505053101 10 65 0.0 0.0 0.00 0.79 0.00 89 1009.1
20260505051548 10 65 0.0 0.0 0.00 0.79 0.00 89 1009.1
20260505041559 11 65 0.0 1.6 0.00 0.79 0.00 86 1009.1
20260505041353 11 65 0.0 1.6 0.00 0.79 0.00 86 1009.5
20260505040905 11 65 0.0 0.0 0.00 0.79 0.00 85 1009.5
20260505040358 11 65 0.0 0.0 0.00 0.79 0.00 84 1009.5
20260505040008 11 65 0.0 0.0 0.00 0.79 0.00 84 1009.2
20260505035908 12 65 0.0 0.0 0.00 0.79 0.79 84 1009.5
20260505035359 12 65 0.0 1.6 0.00 0.79 0.79 83 1009.5
20260505034852 12 65 0.0 1.6 0.00 0.79 0.79 84 1009.5
20260505034546 11 65 0.0 1.6 0.00 0.79 0.79 84 1009.3
20260505034344 12 64 0.0 0.0 0.00 0.79 0.79 84 1009.6
20260505033837 12 64 0.0 0.0 0.00 0.79 0.79 83 1009.5
20260505033349 12 64 0.0 0.0 0.00 0.79 0.79 82 1009.5
20260505033143 12 64 0.0 0.0 0.00 0.79 0.79 82 1009.3
20260505032842 12 64 0.0 0.0 0.00 0.79 0.79 81 1009.5
20260505032415 12 64 0.0 0.0 0.00 0.79 0.79 81 1009.6
20260505031846 12 64 0.0 0.0 0.00 0.79 0.79 81 1009.6
20260505031610 12 64 0.0 0.0 0.00 0.79 0.79 81 1009.3
20260505031359 12 64 0.0 0.0 0.00 0.00 0.79 80 1009.4
20260505030909 13 64 0.0 0.0 0.00 0.79 0.79 80 1009.6
20260505030442 13 63 0.0 0.0 0.00 0.79 0.79 79 1009.6
20260505030047 12 64 0.0 0.0 0.00 0.79 0.79 79 1009.3
20260505025847 13 64 0.0 0.0 0.00 0.79 0.79 79 1009.6
20260505025340 13 64 0.0 0.0 0.00 0.79 0.79 79 1009.6
20260505024912 13 64 0.0 0.0 0.00 0.79 0.79 78 1009.6
20260505024545 13 64 0.0 0.0 0.00 0.79 0.79 77 1009.3
20260505024345 13 64 0.0 0.0 0.00 0.79 0.79 76 1009.6
20260505023838 13 64 0.0 0.0 0.00 0.79 0.79 77 1009.7
20260505023412 14 64 0.0 0.0 0.00 0.79 0.79 76 1009.8
20260505023047 13 64 0.0 0.0 0.00 0.79 0.79 74 1009.5
20260505022843 14 64 0.0 0.0 0.00 0.79 0.79 74 1009.8
20260505022416 14 64 0.0 0.0 0.00 0.79 0.79 73 1009.7
20260505021848 14 64 0.0 0.0 0.00 0.79 0.79 73 1009.7
20260505021542 14 64 0.0 0.0 0.00 0.79 0.79 73 1009.4
20260505021342 15 64 0.0 0.0 0.00 0.79 0.79 73 1009.7
20260505020855 15 64 0.0 0.0 0.00 0.79 0.79 73 1009.6
20260505020348 15 64 0.0 0.0 0.00 0.79 0.79 71 1009.6
20260505020037 15 64 0.0 0.0 0.00 0.79 0.79 70 1009.4
20260505015837 15 64 0.0 0.0 0.00 0.79 0.79 70 1009.6
20260505015350 15 64 0.0 0.0 0.00 0.79 0.79 69 1009.6
20260505014842 15 64 0.0 0.0 0.00 0.79 0.79 68 1009.5
20260505014604 15 64 0.0 0.0 0.00 0.79 0.79 68 1009.2
20260505014355 16 64 0.0 0.0 0.00 0.79 0.79 68 1009.4
20260505013847 16 64 0.0 0.0 0.00 0.79 0.79 68 1009.4
20260505013339 16 64 0.0 0.0 0.00 0.79 0.79 68 1009.3
20260505013033 16 64 0.0 0.0 0.00 0.79 0.79 69 1009.0
20260505012932 16 64 0.0 0.0 0.00 0.79 0.79 69 1009.2
20260505012341 16 64 0.0 0.0 0.00 0.79 0.79 69 1009.1
20260505011913 17 64 0.0 0.0 0.00 0.79 0.79 67 1009.1
20260505011608 16 64 0.0 0.0 0.00 0.79 0.79 66 1008.8
20260505011504 17 64 0.0 0.0 0.00 0.79 0.79 65 1009.0
20260505010848 17 64 0.0 0.0 0.00 0.79 0.79 61 1008.9
20260505010341 17 64 0.0 0.0 0.00 0.79 0.79 61 1008.8
20260505010051 17 64 0.0 0.0 0.00 0.79 0.79 60 1008.5
20260505005850 17 64 0.0 0.0 0.00 0.79 0.79 59 1008.7
20260505005343 18 64 0.0 0.0 0.00 0.79 0.79 61 1008.6
20260505004837 18 64 0.0 0.0 0.00 0.79 0.79 60 1008.5
20260505004555 18 64 0.0 0.0 0.00 0.79 0.79 60 1008.3
20260505004350 18 64 0.0 0.0 0.00 0.79 0.79 59 1008.4
20260505003923 18 64 0.0 1.6 0.00 0.79 0.79 59 1008.4
20260505003411 18 64 0.0 1.6 0.00 0.79 0.79 58 1008.4
20260505003001 18 63 0.0 0.0 0.00 0.79 0.79 57 1008.0
20260505002901 19 63 0.0 0.0 0.00 0.79 0.79 57 1008.3
20260505002354 19 63 0.0 1.6 0.00 0.79 0.79 59 1008.4
20260505001846 19 63 0.0 1.6 0.00 0.79 0.79 60 1008.3
20260505001540 19 63 0.0 1.6 0.00 0.79 0.79 56 1008.0
20260505001339 20 63 0.0 1.6 0.00 0.79 0.79 58 1008.2
20260505000849 20 63 0.0 1.6 0.00 0.79 0.79 53 1008.1
20260505000343 20 63 0.0 3.2 0.00 0.79 0.79 53 1008.1
20260505000018 20 63 0.0 3.2 0.00 0.79 0.79 52 1007.9
20260504235910 20 63 0.0 3.2 0.00 0.79 0.79 51 1008.1
20260504235341 21 63 0.0 3.2 0.00 0.79 0.79 48 1007.9
20260504234855 21 65 0.0 3.2 0.00 0.79 0.79 51 1007.9
20260504234549 21 65 0.0 6.4 0.00 0.79 0.79 49 1007.7
20260504234348 21 63 0.0 6.4 0.00 0.79 0.79 47 1007.9
20260504233841 22 153 1.6 4.8 0.00 0.79 0.79 48 1007.8
20260504233354 22 81 1.6 4.8 0.00 0.79 0.79 46 1007.8
20260504233027 22 138 0.0 4.8 0.00 0.79 0.79 45 1007.6
20260504232926 22 95 0.0 4.8 0.00 0.79 0.79 45 1007.8
20260504232434 22 71 0.0 4.8 0.00 0.79 0.79 45 1007.7
20260504231841 22 192 1.6 4.8 0.00 0.79 0.79 49 1007.7
20260504231555 22 94 0.0 4.8 0.00 0.79 0.79 49 1007.5
20260504231355 22 94 0.0 4.8 0.00 0.79 0.79 45 1007.7
20260504230907 22 136 1.6 4.8 0.00 0.79 0.79 43 1007.7
20260504230340 22 94 1.6 6.4 0.00 0.79 0.79 44 1007.7
20260504225849 23 94 0.0 6.4 0.00 0.86 0.79 42 1007.6
20260504225342 23 96 1.6 3.2 0.00 0.86 0.79 40 1007.6
20260504224855 23 96 1.6 3.2 0.00 0.86 0.79 42 1007.6
20260504224508 22 97 0.0 1.6 0.03 0.86 0.79 42 1007.5
20260504224406 23 97 0.0 3.2 0.03 0.86 0.79 46 1007.7
20260504223838 23 102 0.0 6.4 0.05 0.86 0.79 40 1007.7
20260504223351 23 216 3.2 6.4 0.05 0.86 0.79 39 1007.7
20260504223049 23 130 1.6 9.7 0.05 0.86 0.79 39 1007.5
20260504222849 23 190 3.2 9.7 0.05 0.86 0.79 39 1007.7
20260504222400 23 212 6.4 11.3 0.05 0.86 0.79 42 1007.6
20260504221852 23 86 1.6 11.3 0.05 0.86 0.79 39 1007.6
20260504221557 23 295 1.6 11.3 0.05 0.86 0.79 39 1007.5
20260504221346 23 99 3.2 11.3 0.05 0.86 0.79 39 1007.7
20260504220839 23 114 1.6 9.7 0.05 0.86 0.79 39 1007.6
20260504220353 23 124 1.6 9.7 0.05 0.86 0.79 39 1007.7
20260504220043 23 198 3.2 9.7 0.05 0.86 0.79 38 1007.6
20260504215843 23 257 3.2 9.7 0.05 0.89 0.79 38 1007.7
20260504215335 24 80 4.8 9.7 0.08 0.89 0.79 38 1007.6
20260504214909 24 86 3.2 12.9 0.08 0.89 0.79 38 1007.7
20260504214542 23 161 3.2 12.9 0.05 0.86 0.76 38 1007.6
20260504214342 24 144 4.8 12.9 0.05 0.86 0.76 38 1007.7
20260504213853 23 62 1.6 12.9 0.05 0.84 0.74 38 1007.7
20260504213346 24 360 3.2 14.5 0.05 0.84 0.74 37 1007.6
20260504213044 23 183 1.6 14.5 0.05 0.84 0.71 37 1007.5
20260504212839 24 63 4.8 14.5 0.05 0.84 0.74 37 1007.6
20260504212352 24 175 3.2 14.5 0.05 0.84 0.74 37 1007.5
20260504211905 24 161 4.8 11.3 0.05 0.84 0.74 36 1007.5
20260504211515 24 261 1.6 11.3 0.10 0.84 0.71 35 1007.4
20260504211414 24 220 1.6 14.5 0.10 0.84 0.74 36 1007.5
20260504210846 25 49 3.2 14.5 0.10 0.84 0.74 35 1007.5
20260504210400 25 123 4.8 14.5 0.10 0.84 0.74 34 1007.4
20260504210052 25 178 1.6 14.5 0.10 0.84 0.71 34 1007.4
20260504205848 25 49 1.6 14.5 0.13 0.94 0.74 35 1007.5
20260504205341 25 226 1.6 11.3 0.10 0.91 0.71 35 1007.4
20260504204835 25 174 4.8 12.9 0.10 0.91 0.71 35 1007.4
20260504204549 24 97 1.6 14.5 0.10 0.91 0.71 36 1007.3
20260504204449 24 263 3.2 14.5 0.10 0.91 0.71 35 1007.4
20260504203935 25 22 1.6 4.8 0.08 0.89 0.69 34 1007.4
20260504203343 24 36 1.6 9.7 0.08 0.89 0.69 35 1007.6
20260504203037 23 337 1.6 12.9 0.08 0.89 0.69 35 1007.6
20260504202837 24 75 3.2 12.9 0.08 0.89 0.69 35 1007.7
20260504202349 23 159 6.4 14.5 0.08 0.89 0.69 35 1007.7
20260504201843 23 207 3.2 14.5 0.08 0.89 0.69 35 1007.9
20260504201559 23 207 3.2 14.5 0.03 0.84 0.64 34 1007.7
20260504201354 24 159 3.2 14.5 0.03 0.84 0.64 34 1007.8
20260504200847 24 126 4.8 14.5 0.03 0.84 0.64 34 1007.8
20260504200342 24 157 1.6 16.1 0.03 0.84 0.64 35 1007.9
20260504200052 23 153 6.4 16.1 0.03 0.84 0.64 34 1007.9
20260504195850 24 186 3.2 8.0 0.00 0.86 0.61 35 1008.0
20260504195424 24 84 1.6 8.0 0.00 0.86 0.61 35 1008.0
20260504194910 25 86 1.6 12.9 0.00 0.86 0.61 35 1008.1
20260504194543 24 82 0.0 12.9 0.00 0.86 0.61 34 1008.1
20260504194341 24 70 1.6 12.9 0.00 0.86 0.61 34 1008.2
20260504193914 24 115 1.6 12.9 0.00 0.86 0.61 35 1008.3
20260504193405 24 217 3.2 12.9 0.00 0.86 0.61 34 1008.4
20260504193038 24 159 3.2 12.9 0.03 0.86 0.61 33 1008.4
20260504192837 25 69 3.2 14.5 0.03 0.86 0.61 34 1008.4
20260504192349 25 62 3.2 12.9 0.03 0.86 0.61 34 1008.5
20260504191843 25 5 3.2 12.9 0.03 0.86 0.61 35 1008.6
20260504191606 24 340 3.2 12.9 0.03 0.86 0.61 33 1008.7
20260504191355 25 153 6.4 12.9 0.03 0.86 0.61 34 1008.6
20260504190849 23 134 1.6 14.5 0.03 0.86 0.61 36 1008.8
20260504190403 23 120 6.4 12.9 0.03 0.86 0.61 35 1008.9
20260504190100 23 155 3.2 12.9 0.03 0.86 0.61 35 1009.0
20260504185852 23 75 3.2 14.5 0.03 0.86 0.61 34 1009.0
20260504185406 23 129 1.6 14.5 0.05 0.86 0.61 34 1009.0
20260504184836 23 74 3.2 8.0 0.05 0.86 0.61 35 1009.1
20260504184550 23 145 1.6 8.0 0.05 0.86 0.61 34 1009.2
20260504184349 23 163 3.2 8.0 0.05 0.86 0.61 34 1009.2
20260504183841 23 89 0.0 12.9 0.05 0.86 0.61 34 1009.1
20260504183353 24 156 8.0 14.5 0.10 0.86 0.61 32 1009.2
20260504183047 25 221 3.2 17.7 0.08 0.84 0.58 31 1009.2
20260504182846 25 140 8.0 17.7 0.08 0.84 0.58 31 1009.2
20260504182344 25 98 6.4 17.7 0.08 0.84 0.58 32 1009.3
20260504181837 25 135 3.2 12.9 0.18 0.84 0.58 33 1009.2
20260504181555 25 149 4.8 12.9 0.18 0.84 0.58 32 1009.3
20260504181350 25 201 6.4 14.5 0.18 0.84 0.58 32 1009.2
20260504180842 25 154 3.2 14.5 0.18 0.84 0.58 33 1009.4
20260504180355 25 309 8.0 14.5 0.23 0.84 0.58 32 1009.4
20260504180045 23 80 4.8 12.9 0.25 0.84 0.58 33 1009.5
20260504175844 24 355 6.4 12.9 0.36 0.84 0.58 33 1009.5
20260504175417 23 139 4.8 11.3 0.33 0.81 0.56 33 1009.6
20260504174846 24 134 3.2 12.9 0.36 0.81 0.56 33 1009.6
20260504174539 24 190 4.8 12.9 0.36 0.81 0.56 33 1009.8
20260504174339 24 331 3.2 22.5 0.36 0.81 0.56 34 1009.6
20260504173347 24 44 3.2 14.5 0.30 0.76 0.51 34 1009.8
20260504173039 23 74 3.2 14.5 0.30 0.76 0.51 33 1010.0
20260504172838 24 35 4.8 16.1 0.30 0.76 0.51 33 1010.0
20260504172351 24 130 6.4 16.1 0.30 0.76 0.51 32 1010.1
20260504171843 24 36 6.4 16.1 0.20 0.66 0.41 35 1010.1
20260504171516 23 124 8.0 12.9 0.20 0.66 0.41 34 1010.1
20260504171415 23 347 6.4 11.3 0.20 0.66 0.41 34 1010.1
20260504170848 23 317 4.8 16.1 0.20 0.66 0.41 33 1010.2
20260504170341 22 55 6.4 16.1 0.15 0.61 0.36 34 1010.3